Tracking 18917 objects as of 16-Jan-2018
HD Live streaming from Space Station
objects crossing your sky now

AAUSAT CUBESAT 2

Track AAUSAT CUBESAT 2 now!
10-day predictions
AAUSAT CUBESAT 2 is classified as:


NORAD ID: 32788
Int'l Code: 2008-021F
Perigee: 583.0 km
Apogee: 601.1 km
Inclination: 97.5 °
Period: 96.4 minutes
Semi major axis: 6963 km
RCS: 0.034 m2 (small)
Launch date: April 28, 2008
Source: Denmark (DEN)
Launch site: SRIHARIKOTA (SRI)
Uplink (MHz):
Downlink (MHz): 437.429
Beacon (MHz): 437.429
Mode: 1200bps FFSK MSK
Call sign:
Status: Active


This is a CubeSat satellite. AAUSAT-II is the creation of a student team at Aalborg University in Denmark. It will downlink scientific telemetry at 437.425 MHz using 1200 or 9600-baud packet.
aabbcc
Your satellite tracking list
Your tracking list is empty




NASA's NSSDC Master Catalog

Two Line Element Set (TLE):
1 32788U 08021F   18015.74536100 +.00000405 +00000-0 +42886-4 0  9991
2 32788 097.5375 048.4861 0013022 134.9373 225.2906 14.94187879527317
Source of the keplerian elements: Caltech